Weather in Taganrog

Russia / Rostov Oblast     47°13′15″N   38°55′02″E
temp.,
°C
wind,
m/s
gust,
m/s
humid.,
%
clouds,
%
prec.,
mm/h
press.,
hPa
HPBL,
m
1 august, sun
sun100:00+25nne226213 0.0 101022
03:00+25nne336099 0.0 101048
06:00+24n33651 0.0 101185
09:00+28nne12540 0.0 1011390
12:00+30s32450 0.0 10111145
15:00+32wsw22370 0.0 1010745
18:00+33wnw44360 0.0 1009925
21:00+29nw454331 0.0 101057
2 august, mon
mon200:00+27ne34491 0.0 101055
03:00+25ne465014 0.0 101086
06:00+25ene33543 0.0 101153
09:00+29ese22400 0.0 1011235
12:00+32ssw13300 0.0 1010505
15:00+36ssw01290 0.0 10091362
18:00+35wsw44315 0.0 1008350
21:00+30nw34380 0.0 100838
3 august, tue
tue300:00+29nw124673 0.0 100932
03:00+27nnw35490 0.0 100969
06:00+26nnw35520 0.0 100972
09:00+31nw23410 0.0 1010389
12:00+33sw55380 0.0 10101576
15:00+34wsw87360 0.0 10091851
18:00+31wsw79435 0.0 1009488
21:00+27w46620 0.0 1010119
4 august, wed
wed400:00+25n511675 0.4 1012344
03:00+22n4879100 1.6 1013234
06:00+22nne46800 0.0 1014191
09:00+26nne45601 0.0 1015711
12:00+30n334499 0.0 10151392
15:00+31nnw3437100 0.0 10141589
18:00+30n5535100 0.0 10151297
21:00+25n510444 0.0 1015203
5 august, thu
thu500:00+23nne58470 0.0 1016174
03:00+22nne59461 0.0 1016176
06:00+22ne48479 0.0 1017184
09:00+27e3538100 0.0 1017583
12:00+30e13335 0.0 10161538
15:00+32ene13310 0.0 10141693
18:00+32nne45295 0.0 1014875
21:00+26ne612365 0.0 1014201